Location: Brodeslavy
(49.9527°N, 13.5567°E)
Time: 17:56:28
(UTC+00:00)

Cosmos 371 Rocket - Pass Details

Date: 17 June 2025
Orbit: 675 x 690 km, 74.0° (Epoch: 12 July)

Event Time Altitude Azimuth Distance (km) Brightness Sun altitude
Exits shadow 22:53:23 27° 151° (SSE) 1,327 4.2 -16.6°
Maximum altitude 22:55:20 39° 105° (ESE) 1,042 4.0 -16.6°
Drops below altitude 10° 22:59:49 10° 37° (NE) 2,153 6.6 -16.6°
Sets 23:02:15 0° 30° (NNE) 3,075 7.7 -16.6°
